Time,TemperatureF,DewpointF,PressureIn,WindDirection,WindDirectionDegrees,WindSpeedMPH,WindSpeedGustMPH,Humidity,HourlyPrecipIn,Conditions,Clouds,dailyrainin,SoftwareType,DateUTC
2013-05-02 00:07:00,64.2,58.0,30.13,SE,131,1.0,4.0,79,0.00,,,0.00,weatherlink.com 1.10,2013-05-02 04:07:00,
2013-05-02 00:22:00,64.5,58.0,30.13,SE,131,3.0,4.0,78,0.00,,,0.00,weatherlink.com 1.10,2013-05-02 04:22:00,
2013-05-02 00:38:00,65.4,58.0,30.13,SE,131,3.0,5.0,76,0.00,,,0.00,weatherlink.com 1.10,2013-05-02 04:38:00,
2013-05-02 00:53:00,66.2,58.0,30.13,SE,126,3.0,6.0,74,0.00,,,0.00,weatherlink.com 1.10,2013-05-02 04:53:00,
2013-05-02 01:08:00,65.8,57.0,30.13,SE,129,4.0,5.0,74,0.00,,,0.00,weatherlink.com 1.10,2013-05-02 05:08:00,
2013-05-02 01:23:00,65.6,57.0,30.13,SE,132,2.0,6.0,74,0.00,,,0.00,weatherlink.com 1.10,2013-05-02 05:23:00,
2013-05-02 01:38:00,65.0,57.0,30.13,SE,131,3.0,4.0,75,0.00,,,0.00,weatherlink.com 1.10,2013-05-02 05:38:00,
2013-05-02 01:53:00,64.8,57.0,30.13,SE,131,2.0,4.0,76,0.00,,,0.00,weatherlink.com 1.10,2013-05-02 05:53:00,
2013-05-02 02:08:00,63.1,56.0,30.13,SE,126,2.0,3.0,78,0.00,,,0.00,weatherlink.com 1.10,2013-05-02 06:08:00,
2013-05-02 02:23:00,62.0,56.0,30.12,ESE,108,5.0,5.0,81,0.00,,,0.00,weatherlink.com 1.10,2013-05-02 06:23:00,
2013-05-02 02:38:00,61.9,56.0,30.12,ESE,111,2.0,5.0,82,0.00,,,0.00,weatherlink.com 1.10,2013-05-02 06:38:00,
2013-05-02 02:53:00,61.1,56.0,30.12,ESE,111,1.0,3.0,83,0.00,,,0.00,weatherlink.com 1.10,2013-05-02 06:53:00,
2013-05-02 03:08:00,60.5,56.0,30.12,ESE,111,2.0,2.0,84,0.00,,,0.00,weatherlink.com 1.10,2013-05-02 07:08:00,
2013-05-02 03:23:00,60.3,56.0,30.12,ESE,111,2.0,3.0,84,0.00,,,0.00,weatherlink.com 1.10,2013-05-02 07:23:00,
2013-05-02 03:38:00,59.8,56.0,30.11,ESE,103,2.0,5.0,87,0.00,,,0.00,weatherlink.com 1.10,2013-05-02 07:38:00,
2013-05-02 03:53:00,60.0,57.0,30.11,ESE,110,4.0,7.0,88,0.00,,,0.00,weatherlink.com 1.10,2013-05-02 07:53:00,
2013-05-02 04:08:00,60.4,57.0,30.11,ESE,110,4.0,5.0,87,0.00,,,0.00,weatherlink.com 1.10,2013-05-02 08:08:00,
2013-05-02 04:23:00,60.1,57.0,30.11,ESE,111,3.0,4.0,88,0.00,,,0.00,weatherlink.com 1.10,2013-05-02 08:23:00,
2013-05-02 04:38:00,59.9,56.0,30.11,ESE,111,1.0,4.0,87,0.00,,,0.00,weatherlink.com 1.10,2013-05-02 08:38:00,
2013-05-02 04:53:00,59.9,56.0,30.12,ESE,111,0.0,3.0,88,0.00,,,0.00,weatherlink.com 1.10,2013-05-02 08:53:00,
2013-05-02 05:08:00,59.3,56.0,30.11,ESE,111,0.0,1.0,88,0.00,,,0.00,weatherlink.com 1.10,2013-05-02 09:08:00,
2013-05-02 05:23:00,59.0,56.0,30.11,ESE,111,2.0,3.0,89,0.00,,,0.00,weatherlink.com 1.10,2013-05-02 09:23:00,
2013-05-02 05:38:00,59.6,56.0,30.12,ESE,111,0.0,3.0,88,0.00,,,0.00,weatherlink.com 1.10,2013-05-02 09:38:00,
2013-05-02 05:53:00,59.6,56.0,30.11,ESE,111,1.0,4.0,87,0.00,,,0.00,weatherlink.com 1.10,2013-05-02 09:53:00,
2013-05-02 06:08:00,60.2,56.0,30.11,ESE,117,1.0,5.0,86,0.00,,,0.00,weatherlink.com 1.10,2013-05-02 10:08:00,
2013-05-02 06:23:00,60.2,56.0,30.12,SE,130,6.0,6.0,85,0.00,,,0.00,weatherlink.com 1.10,2013-05-02 10:23:00,
2013-05-02 06:38:00,60.0,56.0,30.11,SE,128,2.0,6.0,85,0.00,,,0.00,weatherlink.com 1.10,2013-05-02 10:38:00,
2013-05-02 07:08:00,59.6,56.0,30.12,SE,140,2.0,4.0,86,0.00,,,0.00,weatherlink.com 1.10,2013-05-02 11:08:00,
2013-05-02 07:23:00,60.3,56.0,30.13,SE,140,3.0,4.0,86,0.00,,,0.00,weatherlink.com 1.10,2013-05-02 11:23:00,
2013-05-02 07:38:00,61.2,56.0,30.13,SSE,156,4.0,7.0,84,0.00,,,0.00,weatherlink.com 1.10,2013-05-02 11:38:00,
2013-05-02 07:53:00,62.0,57.0,30.13,SE,138,5.0,9.0,84,0.00,,,0.00,weatherlink.com 1.10,2013-05-02 11:53:00,
2013-05-02 08:08:00,63.2,57.0,30.14,ESE,119,5.0,11.0,81,0.00,,,0.00,weatherlink.com 1.10,2013-05-02 12:08:00,
2013-05-02 08:23:00,64.5,58.0,30.14,SE,135,8.0,12.0,78,0.00,,,0.00,weatherlink.com 1.10,2013-05-02 12:23:00,
2013-05-02 08:38:00,65.4,57.0,30.14,South,170,8.0,11.0,74,0.00,,,0.00,weatherlink.com 1.10,2013-05-02 12:38:00,
2013-05-02 08:53:00,65.6,58.0,30.14,SSE,163,6.0,9.0,75,0.00,,,0.00,weatherlink.com 1.10,2013-05-02 12:53:00,
2013-05-02 09:08:00,66.3,57.0,30.15,South,173,9.0,11.0,73,0.00,,,0.00,weatherlink.com 1.10,2013-05-02 13:08:00,
2013-05-02 09:23:00,67.2,57.0,30.15,SSE,166,8.0,10.0,71,0.00,,,0.00,weatherlink.com 1.10,2013-05-02 13:23:00,
2013-05-02 09:38:00,67.4,57.0,30.15,South,179,8.0,10.0,69,0.00,,,0.00,weatherlink.com 1.10,2013-05-02 13:38:00,
2013-05-02 09:53:00,68.3,58.0,30.15,SSE,158,9.0,12.0,69,0.00,,,0.00,weatherlink.com 1.10,2013-05-02 13:53:00,
2013-05-02 10:08:00,68.6,58.0,30.15,SSE,165,5.0,15.0,68,0.00,,,0.00,weatherlink.com 1.10,2013-05-02 14:08:00,
2013-05-02 10:23:00,69.3,57.0,30.15,SSE,164,6.0,10.0,66,0.00,,,0.00,weatherlink.com 1.10,2013-05-02 14:23:00,
2013-05-02 10:38:00,70.0,58.0,30.15,South,173,7.0,11.0,67,0.00,,,0.00,weatherlink.com 1.10,2013-05-02 14:38:00,
2013-05-02 10:53:00,70.6,60.0,30.15,South,178,3.0,11.0,69,0.00,,,0.00,weatherlink.com 1.10,2013-05-02 14:53:00,
2013-05-02 11:09:00,71.4,59.0,30.15,South,177,6.0,12.0,65,0.00,,,0.00,weatherlink.com 1.10,2013-05-02 15:09:00,
2013-05-02 11:24:00,71.8,59.0,30.14,SE,146,8.0,13.0,64,0.00,,,0.00,weatherlink.com 1.10,2013-05-02 15:24:00,
2013-05-02 11:39:00,72.7,59.0,30.14,SSE,157,8.0,12.0,62,0.00,,,0.00,weatherlink.com 1.10,2013-05-02 15:39:00,
2013-05-02 11:54:00,73.8,59.0,30.14,South,172,9.0,14.0,61,0.00,,,0.00,weatherlink.com 1.10,2013-05-02 15:54:00,
2013-05-02 12:09:00,74.2,58.0,30.14,SSE,155,6.0,10.0,57,0.00,,,0.00,weatherlink.com 1.10,2013-05-02 16:09:00,
2013-05-02 12:24:00,74.6,60.0,30.13,SSE,161,5.0,12.0,60,0.00,,,0.00,weatherlink.com 1.10,2013-05-02 16:24:00,
2013-05-02 12:39:00,75.2,59.0,30.13,South,176,2.0,9.0,58,0.00,,,0.00,weatherlink.com 1.10,2013-05-02 16:39:00,
2013-05-02 12:54:00,75.2,58.0,30.13,SE,126,8.0,12.0,56,0.00,,,0.00,weatherlink.com 1.10,2013-05-02 16:54:00,
2013-05-02 13:09:00,75.7,60.0,30.12,SSE,157,8.0,12.0,59,0.00,,,0.00,weatherlink.com 1.10,2013-05-02 17:09:00,
2013-05-02 13:24:00,75.2,57.0,30.12,SSE,159,5.0,13.0,54,0.00,,,0.00,weatherlink.com 1.10,2013-05-02 17:24:00,
2013-05-02 13:39:00,76.5,60.0,30.11,SE,141,4.0,11.0,57,0.00,,,0.00,weatherlink.com 1.10,2013-05-02 17:39:00,
2013-05-02 13:54:00,77.0,58.0,30.11,ESE,115,4.0,10.0,52,0.00,,,0.00,weatherlink.com 1.10,2013-05-02 17:54:00,
2013-05-02 14:09:00,76.4,58.0,30.11,SE,136,4.0,14.0,53,0.00,,,0.00,weatherlink.com 1.10,2013-05-02 18:09:00,
2013-05-02 14:24:00,76.5,58.0,30.10,South,175,8.0,11.0,53,0.00,,,0.00,weatherlink.com 1.10,2013-05-02 18:24:00,
2013-05-02 14:39:00,76.5,59.0,30.10,East,93,6.0,14.0,54,0.00,,,0.00,weatherlink.com 1.10,2013-05-02 18:39:00,
2013-05-02 14:54:00,77.1,57.0,30.10,ESE,121,11.0,15.0,50,0.00,,,0.00,weatherlink.com 1.10,2013-05-02 18:54:00,
2013-05-02 15:09:00,76.9,57.0,30.09,SE,138,7.0,13.0,51,0.00,,,0.00,weatherlink.com 1.10,2013-05-02 19:09:00,
2013-05-02 15:24:00,76.0,57.0,30.09,SE,128,7.0,14.0,52,0.00,,,0.00,weatherlink.com 1.10,2013-05-02 19:24:00,
2013-05-02 15:39:00,76.1,55.0,30.08,SE,134,10.0,12.0,49,0.00,,,0.00,weatherlink.com 1.10,2013-05-02 19:39:00,
2013-05-02 15:54:00,77.1,56.0,30.08,SE,140,12.0,16.0,49,0.00,,,0.00,weatherlink.com 1.10,2013-05-02 19:54:00,
2013-05-02 16:09:00,76.8,57.0,30.07,SE,143,11.0,15.0,50,0.00,,,0.00,weatherlink.com 1.10,2013-05-02 20:09:00,
2013-05-02 16:24:00,76.9,57.0,30.07,ESE,111,9.0,14.0,50,0.00,,,0.00,weatherlink.com 1.10,2013-05-02 20:24:00,
2013-05-02 16:39:00,76.6,58.0,30.06,SE,134,7.0,12.0,52,0.00,,,0.00,weatherlink.com 1.10,2013-05-02 20:39:00,
2013-05-02 16:54:00,76.2,58.0,30.06,ESE,105,8.0,15.0,54,0.00,,,0.00,weatherlink.com 1.10,2013-05-02 20:54:00,
2013-05-02 17:09:00,75.3,56.0,30.05,SE,131,10.0,15.0,52,0.00,,,0.00,weatherlink.com 1.10,2013-05-02 21:09:00,
2013-05-02 17:24:00,76.8,57.0,30.05,SE,135,14.0,18.0,50,0.00,,,0.00,weatherlink.com 1.10,2013-05-02 21:24:00,
2013-05-02 17:39:00,74.8,57.0,30.05,SSE,161,10.0,17.0,54,0.00,,,0.00,weatherlink.com 1.10,2013-05-02 21:39:00,
2013-05-02 17:54:00,74.3,56.0,30.05,SSE,150,9.0,15.0,54,0.00,,,0.00,weatherlink.com 1.10,2013-05-02 21:54:00,
2013-05-02 18:09:00,73.3,57.0,30.05,SSE,159,11.0,14.0,57,0.00,,,0.00,weatherlink.com 1.10,2013-05-02 22:09:00,
2013-05-02 18:24:00,73.1,56.0,30.05,SSE,147,11.0,15.0,56,0.00,,,0.00,weatherlink.com 1.10,2013-05-02 22:24:00,
2013-05-02 18:39:00,73.1,56.0,30.05,SE,144,6.0,14.0,55,0.00,,,0.00,weatherlink.com 1.10,2013-05-02 22:39:00,
2013-05-02 18:54:00,72.4,56.0,30.05,SE,132,8.0,16.0,57,0.00,,,0.00,weatherlink.com 1.10,2013-05-02 22:54:00,
2013-05-02 19:09:00,72.0,56.0,30.05,SSE,158,7.0,15.0,58,0.00,,,0.00,weatherlink.com 1.10,2013-05-02 23:09:00,
2013-05-02 19:24:00,71.4,57.0,30.04,SSE,153,8.0,12.0,60,0.00,,,0.00,weatherlink.com 1.10,2013-05-02 23:24:00,
2013-05-02 19:39:00,70.8,56.0,30.04,SSE,166,11.0,14.0,60,0.00,,,0.00,weatherlink.com 1.10,2013-05-02 23:39:00,
2013-05-02 19:54:00,70.2,56.0,30.04,SE,136,8.0,12.0,61,0.00,,,0.00,weatherlink.com 1.10,2013-05-02 23:54:00,
2013-05-02 20:09:00,69.4,56.0,30.05,SSE,151,6.0,10.0,63,0.00,,,0.00,weatherlink.com 1.10,2013-05-03 00:09:00,
2013-05-02 20:24:00,68.6,55.0,30.04,SE,142,5.0,11.0,63,0.00,,,0.00,weatherlink.com 1.10,2013-05-03 00:24:00,
2013-05-02 20:39:00,67.9,55.0,30.05,SSE,148,5.0,9.0,64,0.00,,,0.00,weatherlink.com 1.10,2013-05-03 00:39:00,
2013-05-02 20:54:00,66.3,55.0,30.05,SE,146,2.0,4.0,68,0.00,,,0.00,weatherlink.com 1.10,2013-05-03 00:54:00,
2013-05-02 21:09:00,65.4,55.0,30.05,SE,146,0.0,2.0,70,0.00,,,0.00,weatherlink.com 1.10,2013-05-03 01:09:00,
2013-05-02 21:24:00,63.7,55.0,30.05,SE,146,2.0,2.0,74,0.00,,,0.00,weatherlink.com 1.10,2013-05-03 01:24:00,
2013-05-02 21:39:00,63.0,55.0,30.05,SE,146,0.0,2.0,75,0.00,,,0.00,weatherlink.com 1.10,2013-05-03 01:39:00,
2013-05-02 21:54:00,62.9,55.0,30.06,SE,146,2.0,3.0,76,0.00,,,0.00,weatherlink.com 1.10,2013-05-03 01:54:00,
2013-05-02 22:09:00,63.0,55.0,30.06,SE,146,2.0,3.0,76,0.00,,,0.00,weatherlink.com 1.10,2013-05-03 02:09:00,
2013-05-02 22:24:00,63.0,55.0,30.06,SE,144,2.0,3.0,76,0.00,,,0.00,weatherlink.com 1.10,2013-05-03 02:24:00,
2013-05-02 22:39:00,62.6,55.0,30.06,SE,144,1.0,3.0,76,0.00,,,0.00,weatherlink.com 1.10,2013-05-03 02:39:00,
2013-05-02 22:54:00,62.3,55.0,30.06,SE,143,1.0,3.0,77,0.00,,,0.00,weatherlink.com 1.10,2013-05-03 02:54:00,
2013-05-02 23:09:00,63.2,56.0,30.05,SE,143,2.0,3.0,77,0.00,,,0.00,weatherlink.com 1.10,2013-05-03 03:09:00,
2013-05-02 23:24:00,63.6,56.0,30.05,SE,143,1.0,3.0,75,0.00,,,0.00,weatherlink.com 1.10,2013-05-03 03:24:00,
2013-05-02 23:39:00,63.7,56.0,30.05,SE,143,2.0,3.0,76,0.00,,,0.00,weatherlink.com 1.10,2013-05-03 03:39:00,
2013-05-02 23:54:00,63.5,56.0,30.05,SE,143,2.0,3.0,76,0.00,,,0.00,weatherlink.com 1.10,2013-05-03 03:54:00,